Retour au catalogue

SHIYAN 24C 02

ActifScienceSSO
NORAD 58651·PAYLOAD·🇨🇳 China

Lancé Dec 25, 2023 depuis South China Sea Launch Area

Loading…

Prochains Passages (prochaines 24 heures)

TLE

PériméSource: Space-Track

Époque: Jun 17, 2026, 14:49 UTC

1 58651U 23206B   26168.61785512  .00001138  00000-0  10041-3 0  9998
2 58651  97.4070 136.4161 0004048  99.8565 260.3115 14.98217470135374

Suivez SHIYAN 24C 02 en temps réel avec AllMySat

Download on the App Store